KM4KMS Weather Reports


Display with metric or nautical units.
time (UTC)temp
F
wind
direction
speed
MPH
gust
MPH
rain 1hr
in
rain 24hr
in
rain mn
in
humidity
%
barometer
mb
20260502130312 46 68 2.0 5.0 0.00 0.00 0.00 75 1017.0
20260502123758 45 43 0.0 1.0 0.00 0.00 0.00 82 1017.1
20260502123255 46 30 0.0 1.0 0.00 0.00 0.00 80 1017.1
20260502122751 46 23 1.0 1.0 0.00 0.00 0.00 83 1016.9
20260502122247 44 65 0.0 1.0 0.00 0.00 0.00 83 1017.2
20260502121746 43 72 1.0 3.0 0.00 0.00 0.00 88 1017.0
20260502121243 42 74 1.0 2.0 0.00 0.00 0.00 87 1017.0
20260502120740 43 87 0.0 1.0 0.00 0.00 0.00 86 1017.0
20260502120237 43 73 0.0 1.0 0.00 0.00 0.00 86 1016.9
20260502115734 42 57 0.0 0.0 0.00 0.00 0.00 89 1017.1
20260502115231 41 51 0.0 0.0 0.00 0.00 0.00 89 1016.9
20260502114727 40 29 0.0 0.0 0.00 0.00 0.00 94 1016.7
20260502114224 38 68 0.0 1.0 0.00 0.00 0.00 95 1016.7
20260502113721 38 106 2.0 2.0 0.00 0.00 0.00 95 1016.7
20260502113219 38 111 3.0 3.0 0.00 0.00 0.00 94 1016.6
20260502112717 39 66 0.0 1.0 0.00 0.00 0.00 93 1016.9
20260502112214 39 58 0.0 0.0 0.00 0.00 0.00 94 1017.0
20260502111711 38 61 0.0 0.0 0.00 0.00 0.00 95 1016.6
20260502111209 38 51 0.0 0.0 0.00 0.00 0.00 96 1016.6
20260502110706 37 27 0.0 0.0 0.00 0.00 0.00 97 1016.6
20260502110204 37 27 0.0 0.0 0.00 0.00 0.00 96 1016.6
20260502105702 37 26 0.0 1.0 0.00 0.00 0.00 96 1016.3
20260502105157 38 27 0.0 0.0 0.00 0.00 0.00 95 1016.3
20260502104655 38 70 1.0 1.0 0.00 0.00 0.00 95 1016.1
20260502104153 38 64 1.0 0.0 0.00 0.00 0.00 94 1016.3
20260502103650 38 62 0.0 1.0 0.00 0.00 0.00 94 1016.4
20260502103148 38 45 0.0 0.0 0.00 0.00 0.00 95 1016.1
20260502102644 38 59 1.0 1.0 0.00 0.00 0.00 95 1016.2
20260502102141 38 17 0.0 0.0 0.00 0.00 0.00 97 1016.6
20260502101639 38 16 0.0 0.0 0.00 0.00 0.00 96 1016.4
20260502101137 38 16 0.0 0.0 0.00 0.00 0.00 95 1016.2
20260502100635 38 17 0.0 0.0 0.00 0.00 0.00 95 1016.3
20260502100133 38 17 0.0 0.0 0.00 0.00 0.00 96 1016.3
20260502091107 39 8 0.0 0.0 0.00 0.00 0.00 94 1016.2
20260502090604 39 8 0.0 0.0 0.00 0.00 0.00 93 1016.5
20260502071459 37 1 0.0 0.0 0.00 0.00 0.00 99 1015.9
20260502070956 37 1 0.0 0.0 0.00 0.00 0.00 99 1015.8
20260502070455 38 1 0.0 0.0 0.00 0.00 0.00 99 1015.7
20260502065953 37 1 0.0 0.0 0.00 0.00 0.00 99 1015.9
20260502065451 38 1 0.0 1.0 0.00 0.00 0.00 98 1015.9
20260502064949 38 1 0.0 0.0 0.00 0.00 0.00 98 1016.2
20260502064446 38 1 0.0 0.0 0.00 0.00 0.00 98 1016.0
20260502063943 37 1 0.0 0.0 0.00 0.00 0.00 97 1016.3
20260502063441 38 1 0.0 0.0 0.00 0.00 0.00 96 1016.3
20260502062938 38 1 0.0 0.0 0.00 0.00 0.00 95 1016.2
20260502062435 39 1 0.0 0.0 0.00 0.00 0.00 95 1016.2
20260502061934 39 1 0.0 1.0 0.00 0.00 0.00 93 1016.0
20260502061431 39 354 0.0 0.0 0.00 0.00 0.00 93 1016.3
20260502060927 39 354 0.0 0.0 0.00 0.00 0.00 94 1016.5
20260502060422 39 354 0.0 0.0 0.00 0.00 0.00 94 1016.3
20260502055919 38 350 0.0 0.0 0.00 0.00 0.00 95 1016.4
20260502055417 38 350 0.0 0.0 0.00 0.00 0.00 94 1016.5
20260502054912 38 350 0.0 0.0 0.00 0.00 0.00 93 1016.7
20260502054409 38 350 0.0 0.0 0.00 0.00 0.00 92 1016.8
20260502053906 39 350 0.0 0.0 0.00 0.00 0.00 92 1016.7
20260502053405 39 350 0.0 0.0 0.00 0.00 0.00 91 1016.8
20260502052901 40 350 0.0 1.0 0.00 0.00 0.00 90 1016.7
20260502052359 41 347 1.0 1.0 0.00 0.00 0.00 88 1016.5
20260502051856 40 347 0.0 1.0 0.00 0.00 0.00 90 1016.5
20260502051355 41 347 0.0 0.0 0.00 0.00 0.00 90 1016.4
20260502050851 41 347 0.0 0.0 0.00 0.00 0.00 89 1016.6
20260502050347 41 346 1.0 1.0 0.00 0.00 0.00 90 1016.5
20260502045844 39 343 0.0 1.0 0.00 0.00 0.00 93 1016.7
20260502045341 40 343 1.0 2.0 0.00 0.00 0.00 90 1016.6
20260502044838 41 352 0.0 0.0 0.00 0.00 0.00 89 1016.6
20260502044334 40 352 0.0 0.0 0.00 0.00 0.00 89 1016.5
20260502043832 41 352 0.0 0.0 0.00 0.00 0.00 87 1016.6
20260502043329 41 349 0.0 1.0 0.00 0.00 0.00 88 1016.6
20260502042829 41 349 0.0 0.0 0.00 0.00 0.00 87 1016.6
20260502042326 42 349 0.0 1.0 0.00 0.00 0.00 87 1016.6
20260502041824 42 348 0.0 0.0 0.00 0.00 0.00 86 1016.6
20260502041320 42 346 0.0 0.0 0.00 0.00 0.00 85 1016.8
20260502040818 42 342 0.0 1.0 0.00 0.00 0.00 86 1016.6
20260502040314 42 346 1.0 1.0 0.00 0.00 0.00 85 1016.6
20260502035810 42 349 1.0 1.0 0.00 0.00 0.00 84 1016.7
20260502035307 42 357 0.0 1.0 0.00 0.00 0.00 86 1016.7
20260502034804 42 357 0.0 0.0 0.00 0.00 0.00 85 1016.5
20260502034303 42 358 0.0 0.0 0.00 0.00 0.00 84 1016.5
20260502033801 42 358 0.0 0.0 0.00 0.00 0.00 82 1016.3
20260502033258 43 358 0.0 0.0 0.00 0.00 0.00 81 1016.5
20260502032755 44 358 0.0 0.0 0.00 0.00 0.00 80 1016.4
20260502032251 44 358 0.0 1.0 0.00 0.00 0.00 79 1016.7
20260502031749 45 357 0.0 0.0 0.00 0.00 0.00 77 1016.9
20260502031246 45 357 0.0 0.0 0.00 0.00 0.00 77 1016.7
20260502030745 45 356 2.0 2.0 0.00 0.00 0.00 77 1016.8
20260502030243 45 355 2.0 2.0 0.00 0.00 0.00 78 1016.6
20260502025740 45 349 2.0 3.0 0.00 0.00 0.00 78 1017.0
20260502025238 45 342 2.0 2.0 0.00 0.00 0.00 78 1016.8
20260502024735 45 342 2.0 2.0 0.00 0.00 0.00 78 1016.7
20260502024233 46 354 1.0 2.0 0.00 0.00 0.00 76 1016.9
20260502023731 46 348 1.0 2.0 0.00 0.00 0.00 76 1016.7
20260502023228 46 5 0.0 0.0 0.00 0.00 0.00 76 1016.7
20260502022726 46 5 1.0 1.0 0.00 0.00 0.00 76 1016.4
20260502022222 46 5 0.0 1.0 0.00 0.00 0.00 76 1016.7
20260502021719 47 6 0.0 0.0 0.00 0.00 0.00 75 1016.9
20260502021216 47 5 0.0 0.0 0.00 0.00 0.00 73 1016.5
20260502020713 48 6 0.0 0.0 0.00 0.00 0.00 74 1016.3
20260502020210 48 6 0.0 0.0 0.00 0.00 0.00 74 1015.9
20260502015709 49 5 0.0 1.0 0.00 0.00 0.00 73 1016.0
20260502015204 49 5 0.0 1.0 0.00 0.00 0.00 73 1016.2
20260502014702 49 6 0.0 1.0 0.00 0.00 0.00 73 1016.1
20260502014159 49 7 0.0 0.0 0.00 0.00 0.00 72 1016.0
20260502013655 49 7 1.0 1.0 0.00 0.00 0.00 72 1015.8
20260502013150 48 8 0.0 1.0 0.00 0.00 0.00 73 1015.7
20260502012648 49 4 1.0 2.0 0.00 0.00 0.00 72 1015.5
20260502012146 49 7 2.0 2.0 0.00 0.00 0.00 71 1015.5
20260502011642 49 9 0.0 1.0 0.00 0.00 0.00 72 1015.4
20260502011138 49 6 1.0 1.0 0.00 0.00 0.00 71 1015.5
20260502010636 50 4 1.0 2.0 0.00 0.00 0.00 71 1015.1
20260502010132 50 6 1.0 1.0 0.00 0.00 0.00 70 1015.0
20260502005630 50 6 1.0 2.0 0.00 0.00 0.00 69 1015.0
20260502005127 50 2 1.0 1.0 0.00 0.00 0.00 69 1015.1
20260502004623 51 2 1.0 2.0 0.00 0.00 0.00 68 1015.1
20260502004120 51 2 2.0 2.0 0.00 0.00 0.00 68 1014.9
20260502003618 52 6 2.0 2.0 0.00 0.00 0.00 64 1015.0
20260502003114 53 21 2.0 3.0 0.00 0.00 0.00 65 1014.9
20260502002610 53 14 1.0 2.0 0.00 0.00 0.00 64 1014.8
20260502002108 53 10 1.0 2.0 0.00 0.00 0.00 65 1014.8
20260502001606 53 0 2.0 2.0 0.00 0.00 0.00 62 1014.8
20260502001103 53 3 2.0 2.0 0.00 0.00 0.00 62 1014.3
20260502000601 53 7 3.0 3.0 0.00 0.00 0.00 62 1014.2
20260502000058 53 6 4.0 7.0 0.00 0.00 0.00 61 1013.7
20260501235554 54 6 4.0 5.0 0.00 0.00 0.00 61 1014.1
20260501235050 54 357 4.0 6.0 0.00 0.00 0.00 62 1013.9
20260501234545 54 2 3.0 5.0 0.00 0.00 0.00 62 1013.8
20260501234044 54 9 5.0 7.0 0.00 0.00 0.00 60 1013.8
20260501233542 54 0 5.0 7.0 0.00 0.00 0.00 61 1013.6
20260501233038 55 4 7.0 8.0 0.00 0.00 0.00 59 1013.6
20260501232534 55 349 7.0 8.0 0.00 0.00 0.00 56 1013.7
20260501232032 55 352 5.0 8.0 0.00 0.00 0.00 58 1013.6
20260501231529 56 343 5.0 7.0 0.00 0.00 0.00 56 1013.8
20260501231027 56 350 7.0 9.0 0.00 0.00 0.00 56 1013.8
20260501230526 56 352 7.0 8.0 0.00 0.00 0.00 56 1013.9
20260501230023 57 352 7.0 8.0 0.00 0.00 0.00 57 1013.9
20260501225521 57 3 5.0 8.0 0.00 0.00 0.00 57 1013.8
20260501225016 55 343 8.0 10.0 0.00 0.00 0.00 55 1013.8
20260501224515 56 334 11.0 13.0 0.00 0.00 0.00 56 1013.8
20260501224011 55 350 7.0 8.0 0.00 0.00 0.00 58 1013.6
20260501223508 56 340 6.0 7.0 0.00 0.00 0.00 58 1013.8
20260501223004 57 354 5.0 9.0 0.00 0.00 0.00 57 1013.7
20260501222500 57 347 5.0 7.0 0.00 0.00 0.00 57 1013.7
20260501221956 56 5 7.0 13.0 0.00 0.00 0.00 58 1013.5
20260501221454 56 347 7.0 9.0 0.00 0.00 0.00 56 1013.6
20260501220952 56 353 7.0 9.0 0.00 0.00 0.00 61 1013.6
20260501220449 56 343 7.0 10.0 0.00 0.00 0.00 60 1013.8
20260501215945 56 353 5.0 8.0 0.00 0.00 0.00 60 1013.8
20260501215442 57 355 10.0 10.0 0.00 0.00 0.00 57 1013.9
20260501214937 58 7 7.0 8.0 0.00 0.00 0.00 56 1013.7
20260501214433 56 356 7.0 9.0 0.00 0.00 0.00 58 1013.8
20260501213928 56 342 13.0 15.0 0.00 0.00 0.00 58 1013.7
20260501213426 56 357 6.0 9.0 0.00 0.00 0.00 60 1013.7
20260501212921 56 358 9.0 11.0 0.00 0.00 0.00 60 1013.8
20260501212418 56 333 8.0 11.0 0.00 0.00 0.00 60 1013.9
20260501211915 55 353 14.0 14.0 0.00 0.00 0.00 59 1013.7
20260501211413 55 348 10.0 16.0 0.00 0.00 0.00 62 1013.5
20260501210910 56 337 9.0 14.0 0.00 0.00 0.00 53 1013.8
20260501210406 56 342 8.0 13.0 0.00 0.00 0.00 54 1013.5
20260501205903 57 316 6.0 10.0 0.00 0.00 0.00 56 1013.5
20260501205400 57 330 6.0 10.0 0.00 0.00 0.00 54 1013.6
20260501204857 57 315 4.0 7.0 0.00 0.00 0.00 57 1013.6
20260501204353 57 348 8.0 16.0 0.00 0.00 0.00 56 1013.5
20260501203849 58 349 9.0 10.0 0.00 0.00 0.00 56 1013.5
20260501203347 57 347 8.0 10.0 0.00 0.00 0.00 56 1013.6
20260501202843 57 316 10.0 11.0 0.00 0.00 0.00 57 1013.8
20260501202341 57 332 10.0 13.0 0.00 0.00 0.00 56 1013.8
20260501201837 57 353 8.0 10.0 0.00 0.00 0.00 58 1013.7
20260501201334 58 354 11.0 14.0 0.00 0.00 0.00 53 1013.9
20260501200830 57 359 6.0 10.0 0.00 0.00 0.00 60 1013.8
20260501200328 57 330 10.0 9.0 0.00 0.00 0.00 59 1013.9
20260501195826 57 356 9.0 15.0 0.00 0.00 0.00 59 1014.1
20260501195321 59 348 7.0 10.0 0.00 0.00 0.00 58 1013.9
20260501194817 57 334 6.0 9.0 0.00 0.00 0.00 56 1013.9
20260501194314 56 346 13.0 16.0 0.00 0.00 0.00 52 1014.0
20260501193810 57 336 7.0 11.0 0.00 0.00 0.00 56 1013.8
20260501193309 58 330 9.0 10.0 0.00 0.00 0.00 53 1013.8
20260501192806 60 340 3.0 6.0 0.00 0.00 0.00 49 1013.5
20260501192306 59 332 12.0 14.0 0.00 0.00 0.00 51 1013.5
20260501191800 59 289 9.0 10.0 0.00 0.00 0.00 49 1013.6
20260501191257 59 344 8.0 13.0 0.00 0.00 0.00 56 1013.8
20260501190754 59 347 11.0 15.0 0.00 0.00 0.00 56 1013.7
20260501190249 57 334 5.0 11.0 0.00 0.00 0.00 56 1013.9
20260501185745 57 348 7.0 10.0 0.00 0.00 0.00 57 1013.6
20260501185241 59 331 10.0 11.0 0.00 0.00 0.00 59 1013.6
20260501184737 58 353 7.0 11.0 0.00 0.00 0.00 57 1013.5
20260501184232 57 343 8.0 9.0 0.00 0.00 0.00 62 1013.7
20260501183729 56 322 7.0 10.0 0.00 0.00 0.00 58 1013.8
20260501183226 57 347 11.0 11.0 0.00 0.00 0.00 61 1013.8
20260501182722 60 315 6.0 7.0 0.00 0.00 0.00 60 1014.1
20260501182220 57 333 6.0 7.0 0.00 0.00 0.00 62 1013.8
20260501181716 56 331 5.0 9.0 0.00 0.00 0.00 64 1013.8
20260501181214 56 347 11.0 13.0 0.00 0.00 0.00 61 1013.9
20260501180712 56 321 7.0 9.0 0.00 0.00 0.00 60 1013.9
20260501180207 56 348 8.0 11.0 0.00 0.00 0.00 62 1013.8
20260501175704 56 340 8.0 14.0 0.00 0.00 0.00 62 1014.0
20260501175201 57 331 9.0 11.0 0.00 0.00 0.00 54 1013.9
20260501174657 57 340 11.0 11.0 0.00 0.00 0.00 57 1013.7
20260501174155 59 340 8.0 8.0 0.00 0.00 0.00 60 1013.7
20260501173653 60 318 1.0 3.0 0.00 0.00 0.00 63 1013.8
20260501173149 57 249 5.0 7.0 0.00 0.00 0.00 65 1013.5
20260501172645 56 325 4.0 6.0 0.00 0.00 0.00 64 1013.8
20260501172140 56 347 6.0 8.0 0.00 0.00 0.00 68 1013.8
20260501171637 55 291 8.0 14.0 0.00 0.00 0.00 64 1013.8
20260501171134 55 336 8.0 9.0 0.00 0.00 0.00 66 1013.7
20260501170631 55 328 10.0 14.0 0.00 0.00 0.00 65 1013.7
20260501170127 58 312 7.0 11.0 0.00 0.00 0.00 62 1013.7
20260501165625 58 255 6.0 10.0 0.00 0.00 0.00 66 1013.7
20260501165122 55 308 5.0 10.0 0.00 0.00 0.00 66 1013.7
20260501164620 55 306 7.0 7.0 0.00 0.00 0.00 66 1013.9
20260501164116 56 335 7.0 9.0 0.00 0.00 0.00 65 1013.8
20260501163607 57 323 7.0 13.0 0.00 0.00 0.00 63 1013.8
20260501163104 56 306 6.0 8.0 0.00 0.00 0.00 69 1013.8
20260501162600 54 333 9.0 9.0 0.00 0.00 0.00 71 1013.9
20260501162058 54 332 11.0 13.0 0.00 0.00 0.00 69 1014.0
20260501161555 55 311 4.0 7.0 0.00 0.00 0.00 71 1013.8
20260501161051 55 266 3.0 6.0 0.00 0.00 0.00 72 1013.6
20260501160548 54 325 6.0 8.0 0.00 0.00 0.00 71 1013.7
20260501160045 55 331 5.0 11.0 0.00 0.00 0.00 71 1013.7
20260501155541 55 316 6.0 9.0 0.00 0.00 0.00 71 1013.5
20260501155039 54 349 6.0 7.0 0.00 0.00 0.00 73 1013.7
20260501154536 53 342 6.0 9.0 0.00 0.00 0.00 75 1013.6
20260501154033 53 326 6.0 8.0 0.00 0.00 0.00 75 1013.4
20260501153531 53 321 6.0 5.0 0.00 0.00 0.00 75 1013.7
20260501153027 52 334 7.0 10.0 0.00 0.00 0.00 75 1013.5
20260501152524 53 289 8.0 10.0 0.00 0.00 0.00 75 1013.5
20260501152021 52 322 9.0 11.0 0.00 0.00 0.00 75 1013.6
20260501151518 52 298 6.0 8.0 0.00 0.00 0.00 76 1013.4
20260501151015 52 312 3.0 6.0 0.00 0.00 0.00 76 1013.4
20260501150510 53 322 7.0 10.0 0.00 0.00 0.00 74 1013.1
20260501150007 53 335 11.0 10.0 0.00 0.00 0.00 75 1013.3
20260501145503 53 320 12.0 13.0 0.00 0.00 0.00 74 1013.2
20260501145001 54 317 14.0 17.0 0.00 0.00 0.00 73 1012.9
20260501144456 54 327 6.0 7.0 0.00 0.00 0.00 74 1013.0
20260501143952 54 341 13.0 13.0 0.00 0.00 0.00 74 1013.0